Temp
21 21 21 21 21 20 20 20 20 20 19 19 19 19 19 19 20 19 19 19 20 20 20 20 20 20 19 20 20 19 19 19 19 19 19 20 19 19 19 19 19 19
21 21 21 21 21 21 21 20 20 20 20 20 20 19 19 19 20 20 20 20 20 20 20 20 20 20 20 20 20 20 20 20 19 18 19 20 19 19 19 19 19 20
21 21 21 21 21 21 21 20 20 20 20 20 20 19 19 19 20 20 20 20 20 20 20 20 20 20 20 20 20 20 20 20 19 18 19 20 19 19 19 19 19 20
21 21 21 21 21 21 20 20 20 21 20 20 20 19 19 19 19 20 20 20 20 20 20 20 20 20 20 20 20 20 20 20 20 19 19 20 20 19 19 19 19 19
22 21 21 21 21 21 21 20 20 21 20 20 20 20 20 20 19 19 20 20 20 20 20 20 20 20 20 20 20 20 20 20 20 20 20 20 20 20 19 19 20 20
22 21 21 21 21 21 21 21 21 21 20 20 20 20 20 20 20 20 19 20 20 20 20 20 20 20 20 21 21 20 20 20 19 20 20 20 20 20 19 19 20 20
22 22 21 21 21 21 21 21 21 21 21 20 20 20 20 20 20 20 20 20 20 20 19 19 20 20 20 21 21 21 21 20 20 20 20 20 20 20 20 20 20 20
22 22 22 22 21 21 21 21 21 21 21 21 21 21 21 21 21 20 20 20 20 20 20 20 20 21 21 21 21 21 21 20 20 20 21 20 20 21 21 20 21 21
21 21 22 22 21 21 21 21 21 21 21 22 21 21 21 21 21 20 20 21 20 20 20 20 21 21 21 20 21 21 21 21 20 20 21 21 21 21 21 21 21 21
20 21 21 21 21 21 21 20 21 21 21 22 22 21 21 21 22 21 21 21 21 21 21 21 21 21 21 20 21 21 21 21 21 21 21 21 21 21 21 21 21 21
20 20 20 21 21 21 21 21 21 21 21 22 22 21 21 21 22 22 22 22 22 21 21 21 21 21 21 21 20 21 21 22 22 22 22 22 22 22 22 21 21 21
20 20 20 20 21 21 21 21 21 21 21 21 22 22 22 21 22 22 22 22 22 22 21 22 22 21 21 21 21 20 21 21 22 22 22 22 22 22 22 22 22 22
20 20 20 20 20 21 21 21 21 21 21 21 21 22 22 22 22 22 22 22 22 22 22 22 22 22 22 22 22 21 21 21 22 22 22 22 22 23 22 22 22 22
20 20 20 20 20 20 21 21 21 21 21 21 21 21 22 21 22 22 23 23 22 22 22 22 22 22 22 22 22 22 22 22 22 22 22 22 22 22 22 22 22 22
20 20 20 20 20 21 21 21 21 20 21 20 21 21 22 21 21 21 22 23 23 23 22 22 22 22 22 22 22 22 22 22 22 22 22 22 22 22 22 22 23 22
19 19 20 20 20 21 21 21 21 21 21 21 21 21 22 22 21 21 21 22 23 23 23 23 22 22 23 23 23 23 23 22 22 22 23 22 22 23 22 22 23 22
19 19 19 20 20 21 21 21 21 21 21 21 21 21 21 22 22 21 21 21 21 22 23 23 23 23 23 23 23 23 23 23 23 23 23 23 23 23 23 23 23 22
19 19 19 19 20 20 21 21 21 21 21 21 21 21 21 21 21 22 22 21 21 21 21 22 23 23 23 23 23 23 23 23 23 22 22 22 23 23 23 23 23 23
19 19 19 19 19 19 20 20 20 21 21 21 21 21 21 21 21 21 22 22 21 21 21 21 22 23 24 24 24 24 23 23 23 23 22 22 22 23 23 23 23 23
19 19 19 19 19 19 19 20 20 21 21 21 20 20 21 21 21 21 21 22 22 21 21 21 22 23 24 24 24 24 24 24 23 23 23 23 23 23 23 23 23 23
19 18 19 19 19 19 19 20 20 21 21 21 20 20 20 21 21 21 21 21 22 22 21 21 22 22 23 24 24 24 24 24 24 23 23 23 23 23 23 23 24 24
18 19 19 19 19 19 19 19 19 20 20 21 20 20 19 20 20 21 21 21 22 22 21 21 22 22 22 23 23 23 23 23 23 23 23 23 23 23 23 24 24 24
18 18 19 19 19 19 19 19 19 19 19 20 19 19 20 20 20 20 20 21 21 21 22 22 22 22 22 22 22 22 22 22 22 22 22 23 23 23 23 23 24 24
17 18 18 19 19 19 19 19 19 19 19 19 19 19 19 20 20 20 20 20 20 21 22 22 22 22 22 22 22 22 22 22 22 22 22 22 22 22 23 23 23 24
17 17 18 18 19 19 19 18 18 18 18 18 19 19 19 19 20 20 20 20 20 20 21 22 22 22 22 22 22 22 22 22 21 21 21 21 22 22 22 22 23 23
17 17 18 18 18 18 18 18 18 18 19 19 19 19 19 19 19 20 20 21 20 20 21 21 22 22 22 22 22 22 22 22 21 21 21 21 21 21 21 22 22 23
Height
1587 1589 1591 1592 1594 1596 1597 1599 1600 1601 1603 1604 1606 1607 1607 1608 1609 1610 1610 1611 1611 1612 1612 1612 1613 1613 1613 1614 1614 1615 1615 1616 1616 1616 1616 1616 1617 1618 1618 1618 1619 1619
1586 1587 1589 1591 1592 1594 1596 1597 1599 1600 1601 1602 1604 1606 1606 1607 1608 1608 1609 1610 1611 1611 1611 1612 1612 1612 1613 1613 1614 1614 1615 1615 1616 1616 1616 1616 1617 1617 1618 1618 1618 1618
1584 1585 1587 1589 1590 1592 1594 1596 1597 1598 1600 1601 1602 1604 1605 1606 1607 1607 1608 1609 1609 1610 1611 1611 1612 1612 1612 1613 1613 1614 1614 1614 1615 1616 1616 1616 1616 1617 1617 1618 1618 1618
1582 1584 1585 1587 1589 1591 1593 1594 1595 1597 1598 1600 1601 1602 1603 1605 1605 1606 1607 1608 1608 1609 1610 1610 1611 1611 1611 1612 1612 1613 1613 1614 1614 1615 1615 1615 1616 1616 1616 1617 1618 1618
1581 1582 1584 1586 1587 1589 1591 1592 1593 1595 1596 1598 1599 1600 1601 1602 1604 1605 1605 1606 1607 1608 1609 1609 1610 1610 1610 1611 1611 1612 1612 1613 1614 1614 1614 1615 1615 1615 1616 1616 1616 1617
1579 1581 1582 1584 1586 1587 1589 1590 1592 1593 1595 1596 1597 1598 1599 1600 1602 1603 1604 1605 1606 1607 1607 1608 1608 1609 1609 1610 1610 1611 1611 1612 1613 1613 1613 1614 1614 1615 1615 1616 1616 1616
1577 1579 1581 1582 1584 1585 1587 1588 1590 1591 1593 1594 1595 1596 1598 1599 1600 1601 1602 1603 1604 1605 1606 1607 1607 1607 1608 1608 1609 1609 1610 1611 1612 1612 1612 1613 1613 1614 1615 1615 1615 1615
1575 1577 1579 1580 1582 1583 1585 1586 1588 1589 1591 1592 1593 1594 1595 1597 1598 1599 1600 1601 1602 1603 1604 1605 1605 1606 1607 1607 1608 1608 1609 1609 1610 1611 1611 1612 1612 1613 1613 1614 1614 1614
1572 1574 1576 1578 1580 1581 1583 1584 1586 1587 1588 1590 1591 1593 1594 1595 1596 1597 1599 1599 1600 1601 1602 1603 1603 1604 1605 1605 1606 1607 1607 1608 1609 1609 1610 1610 1611 1612 1612 1613 1613 1613
1569 1571 1574 1575 1577 1580 1581 1583 1584 1585 1586 1587 1589 1591 1592 1593 1594 1595 1596 1597 1598 1599 1600 1601 1602 1602 1603 1604 1604 1605 1605 1606 1607 1608 1608 1609 1610 1610 1611 1611 1612 1612
1567 1569 1571 1573 1575 1577 1579 1581 1582 1584 1584 1585 1587 1588 1589 1591 1591 1592 1594 1594 1595 1597 1597 1599 1599 1600 1601 1602 1603 1603 1604 1605 1606 1606 1607 1607 1608 1609 1609 1610 1610 1611
1565 1567 1569 1570 1572 1575 1577 1579 1580 1582 1582 1583 1584 1586 1587 1588 1589 1590 1591 1592 1593 1594 1595 1596 1597 1598 1599 1600 1601 1602 1602 1603 1604 1605 1605 1606 1606 1607 1607 1608 1608 1609
1563 1565 1566 1568 1570 1572 1574 1576 1577 1579 1580 1581 1581 1583 1584 1585 1586 1587 1588 1589 1591 1592 1593 1594 1594 1596 1597 1597 1599 1600 1600 1601 1602 1603 1604 1604 1605 1605 1606 1606 1607 1607
1561 1563 1564 1566 1567 1569 1570 1573 1574 1576 1577 1578 1579 1580 1581 1582 1583 1585 1586 1587 1588 1589 1590 1591 1592 1593 1594 1594 1596 1597 1598 1599 1600 1601 1602 1602 1603 1603 1604 1604 1605 1605
1559 1560 1561 1562 1564 1565 1567 1569 1571 1573 1574 1575 1576 1577 1578 1580 1581 1582 1583 1584 1585 1586 1587 1588 1588 1589 1590 1591 1593 1594 1595 1596 1597 1598 1599 1600 1601 1601 1602 1602 1602 1603
1556 1557 1558 1559 1560 1562 1563 1565 1567 1569 1570 1571 1572 1573 1575 1576 1577 1579 1580 1580 1581 1582 1583 1584 1585 1586 1586 1588 1589 1591 1592 1594 1595 1595 1596 1597 1598 1598 1599 1599 1600 1600
1553 1554 1554 1556 1557 1558 1560 1561 1563 1565 1566 1567 1568 1570 1571 1572 1573 1575 1576 1577 1578 1579 1580 1580 1581 1582 1583 1584 1586 1588 1589 1591 1591 1592 1593 1594 1594 1595 1595 1596 1597 1597
1551 1551 1552 1553 1554 1555 1556 1557 1559 1561 1562 1563 1564 1565 1567 1568 1569 1570 1572 1573 1574 1575 1576 1576 1577 1578 1579 1580 1582 1584 1585 1587 1588 1589 1589 1590 1591 1591 1591 1592 1593 1594
1549 1549 1549 1550 1551 1551 1552 1554 1555 1556 1558 1559 1560 1561 1562 1563 1564 1566 1567 1569 1570 1571 1571 1572 1573 1574 1575 1576 1578 1580 1581 1583 1584 1585 1585 1586 1586 1587 1587 1588 1589 1590
1546 1546 1546 1547 1548 1548 1549 1550 1551 1552 1553 1555 1557 1557 1558 1559 1560 1562 1563 1564 1565 1566 1567 1568 1568 1569 1570 1572 1574 1575 1577 1578 1579 1580 1581 1582 1582 1582 1583 1584 1584 1585
1543 1544 1543 1543 1544 1545 1545 1546 1547 1548 1549 1551 1553 1554 1554 1555 1556 1557 1558 1559 1560 1562 1563 1563 1564 1565 1566 1567 1569 1571 1573 1574 1575 1575 1576 1577 1577 1578 1578 1579 1580 1581
1540 1541 1541 1540 1541 1541 1542 1542 1543 1544 1545 1546 1548 1550 1552 1552 1552 1553 1554 1555 1556 1557 1558 1559 1559 1560 1561 1562 1564 1566 1568 1569 1569 1570 1571 1571 1572 1573 1573 1574 1575 1576
1537 1538 1538 1538 1538 1538 1539 1539 1540 1541 1542 1543 1544 1546 1548 1549 1550 1550 1551 1552 1552 1553 1554 1554 1555 1556 1557 1558 1560 1561 1563 1564 1564 1565 1566 1566 1567 1568 1568 1569 1569 1570
1536 1536 1536 1536 1536 1536 1536 1537 1537 1538 1539 1541 1542 1543 1545 1546 1548 1548 1548 1549 1549 1549 1550 1550 1551 1552 1552 1554 1555 1557 1558 1559 1560 1560 1561 1561 1562 1563 1563 1563 1564 1565
1535 1534 1534 1534 1533 1533 1534 1535 1535 1535 1536 1538 1540 1541 1542 1543 1545 1546 1546 1546 1546 1546 1546 1546 1547 1548 1548 1549 1550 1552 1553 1554 1555 1556 1556 1556 1557 1558 1558 1558 1559 1559
1533 1533 1532 1531 1531 1530 1531 1531 1532 1534 1536 1537 1539 1540 1540 1541 1542 1543 1544 1544 1544 1544 1544 1543 1543 1543 1544 1544 1546 1547 1549 1550 1551 1551 1550 1551 1552 1553 1553 1553 1554 1554
Wind_Speed
20 22 21 20 19 18 18 17 17 17 16 14 12 12 12 12 11 10 10 9 9 9 8 8 7 7 7 6 6 6 6 6 6 6 5 4 3 3 4 4 4 4
18 20 22 22 21 19 18 18 17 17 17 16 14 13 13 13 13 11 10 10 9 10 10 9 9 8 8 7 6 6 6 7 7 6 6 5 4 4 4 4 4 4
17 18 20 22 22 20 19 18 18 17 17 17 17 16 14 13 13 13 11 10 10 10 11 11 10 9 9 8 7 7 7 7 7 8 8 7 6 5 5 5 5 4
19 18 18 19 21 21 19 19 19 18 18 18 17 17 16 14 14 15 13 11 11 11 11 11 11 10 10 9 8 8 7 8 8 9 9 8 7 6 6 6 6 5
20 18 17 18 19 21 21 20 19 18 18 18 18 18 18 19 18 16 14 13 12 12 12 12 12 11 11 10 10 9 8 8 8 9 9 8 7 7 6 6 7 6
21 20 19 18 18 20 21 21 20 19 18 18 18 18 19 20 20 18 16 14 13 12 12 13 13 12 12 11 11 10 9 9 9 9 9 8 8 8 7 8 8 7
21 21 20 19 18 19 19 20 20 20 19 19 19 19 19 20 20 20 19 17 14 13 13 13 14 14 13 13 12 12 11 10 10 10 9 9 9 9 9 10 9 8
23 21 21 21 20 20 19 19 20 20 20 20 20 20 20 20 21 20 19 18 17 16 16 15 15 14 14 14 14 13 12 11 11 11 10 10 10 10 10 10 10 9
25 23 22 22 22 21 20 19 20 20 21 21 21 21 21 21 22 21 20 20 19 18 19 18 17 16 15 16 16 15 14 13 13 12 11 11 11 10 10 10 10 10
25 25 24 23 23 23 21 20 19 19 20 21 21 21 21 22 22 22 22 22 21 20 21 20 20 19 18 17 18 17 16 15 14 14 12 12 11 11 11 11 11 11
23 24 24 24 24 23 22 21 20 20 20 20 21 21 21 22 23 23 23 23 22 22 22 22 22 21 20 19 19 19 18 16 15 14 14 13 12 12 12 12 12 12
21 22 22 24 24 23 22 22 21 20 20 21 20 21 22 23 23 24 24 24 23 23 23 23 23 23 22 22 20 20 19 18 17 16 15 14 13 13 12 12 12 13
19 20 21 22 23 23 23 22 22 21 21 21 20 20 22 23 24 24 24 24 24 23 24 24 24 24 24 23 23 22 22 21 20 19 18 17 16 15 14 13 13 13
18 18 20 21 22 24 24 23 22 22 22 23 22 22 21 22 23 24 25 25 25 25 25 25 25 25 25 25 25 24 25 24 23 21 20 19 19 18 17 16 16 15
19 19 20 21 22 24 25 25 24 24 24 24 25 25 23 22 23 23 25 26 27 27 27 27 27 27 27 27 27 26 26 26 25 24 23 22 22 21 20 20 19 19
20 21 22 23 23 24 24 24 25 26 26 27 27 27 26 25 24 24 25 26 28 29 29 29 30 30 30 29 29 28 28 27 27 27 26 25 25 25 24 24 23 22
19 21 22 22 24 25 24 24 25 26 27 28 28 28 27 26 26 26 26 26 27 29 31 32 32 33 33 32 31 30 29 29 29 29 29 29 29 29 28 27 27 26
20 20 20 20 21 23 23 23 24 25 27 27 28 28 28 27 27 27 27 27 27 28 30 32 33 35 35 34 33 32 32 31 31 31 31 31 31 31 31 30 30 29
20 20 19 18 18 20 22 24 24 24 25 26 26 27 27 28 27 27 27 27 28 29 30 31 33 36 37 36 35 34 34 33 34 34 33 33 33 34 33 33 32 31
20 19 18 18 19 20 21 23 24 24 23 24 25 26 27 28 27 27 27 27 28 29 30 31 33 36 37 36 35 35 34 34 35 35 36 36 36 36 35 35 34 33
23 21 18 18 19 21 21 22 24 25 24 24 24 24 25 26 26 26 27 27 27 28 29 31 32 34 36 36 35 34 34 35 36 37 37 38 38 38 38 37 36 35
23 24 23 21 19 20 21 22 22 24 25 25 25 24 24 24 25 26 26 27 27 28 29 31 32 32 33 34 34 34 33 34 36 37 38 39 39 40 40 39 38 37
20 22 25 25 23 21 21 21 21 22 23 25 26 25 24 24 24 25 25 26 26 27 28 30 32 32 32 32 32 32 31 32 33 35 36 38 39 40 40 40 40 40
16 19 21 24 24 23 23 22 22 22 22 22 23 24 24 23 23 23 23 24 26 27 28 29 30 31 32 32 31 30 30 30 31 32 34 36 37 38 39 40 41 41
12 16 19 21 23 24 23 22 23 24 24 21 20 21 21 22 23 23 23 24 25 26 27 29 30 31 31 32 32 31 30 31 31 32 33 35 36 37 38 39 41 41
10 13 15 17 20 22 24 23 23 24 25 23 20 20 21 22 22 22 23 24 25 25 26 28 30 31 32 32 32 31 31 31 31 32 34 35 35 35 37 38 40 42
Wind_Direction
226 228 228 228 228 227 226 224 220 215 212 211 215 218 218 218 216 216 222 224 221 222 220 215 211 205 202 208 205 207 215 204 206 230 231 215 212 213 219 220 222 233
227 228 227 228 229 227 226 226 222 218 216 213 211 215 220 220 218 217 220 224 224 225 225 220 220 218 209 212 213 212 224 222 213 227 238 229 221 221 222 225 229 234
229 228 227 226 228 227 225 227 225 221 219 218 216 217 221 222 223 221 218 222 225 225 227 223 222 223 218 216 218 215 221 226 217 223 238 236 226 225 226 227 233 239
230 230 229 227 227 228 226 226 227 223 219 220 220 220 221 221 224 224 219 219 224 224 226 224 222 224 222 220 222 221 220 223 218 220 230 234 229 226 225 227 229 231
230 231 232 230 228 229 228 227 227 226 223 221 220 222 222 221 221 223 223 220 222 226 226 224 222 223 224 224 225 226 225 227 231 230 227 228 233 233 231 233 232 229
231 231 233 232 230 231 231 229 228 227 226 224 222 222 223 223 221 221 224 223 222 224 226 227 227 225 226 226 227 229 227 226 233 237 233 230 233 235 235 239 239 235
234 232 233 233 233 234 233 232 230 228 228 227 226 223 222 222 222 221 223 222 220 221 222 227 229 228 228 229 229 231 230 226 230 235 235 235 236 234 235 241 246 245
238 236 234 233 233 235 235 232 231 230 229 229 229 227 222 221 221 223 225 224 221 222 222 225 229 228 229 231 231 231 232 231 234 238 238 238 241 239 238 242 248 250
240 239 237 235 233 234 233 231 231 231 231 229 230 230 225 222 221 222 226 226 223 225 226 227 229 228 229 233 234 233 233 232 234 238 239 239 242 243 243 246 249 252
237 238 237 236 234 231 230 228 227 230 233 231 229 230 228 225 223 222 226 227 225 227 229 230 230 230 230 233 236 236 234 232 232 235 237 239 243 245 246 250 252 255
234 235 234 235 234 229 228 228 224 224 232 235 231 229 230 230 226 223 225 227 226 226 230 232 232 233 234 234 237 238 236 233 233 235 237 240 246 248 249 252 255 258
229 231 230 232 235 232 227 227 226 222 227 235 235 231 231 234 232 228 227 227 227 226 230 233 234 235 237 236 236 238 237 235 234 236 239 243 247 249 251 254 256 258
227 229 229 230 234 235 232 228 227 225 224 230 236 234 232 234 236 234 231 229 228 227 228 232 234 235 238 238 237 236 236 236 236 239 244 246 247 249 251 255 257 260
226 226 230 232 234 238 239 234 229 228 226 227 233 237 235 233 236 238 237 234 232 231 230 231 233 234 236 237 236 235 235 237 238 241 244 247 249 250 251 254 256 258
230 227 231 238 242 245 247 244 238 235 233 232 236 241 240 236 235 237 239 239 237 235 233 233 234 235 234 234 234 234 234 237 240 243 245 248 251 253 254 256 256 257
234 236 242 245 248 251 253 252 249 245 244 244 245 247 246 243 240 237 237 239 240 238 237 236 236 236 235 234 233 233 234 237 241 245 248 250 253 256 257 259 260 260
237 240 246 247 250 254 255 255 255 253 251 252 252 251 250 247 245 241 238 238 239 241 240 239 238 238 237 236 235 235 235 238 242 246 250 252 254 257 258 260 262 263
241 241 242 242 246 252 254 256 258 258 257 256 255 253 253 251 248 245 241 238 239 240 241 241 241 240 239 238 238 237 237 238 242 245 249 253 254 256 258 259 260 262
239 241 241 237 238 244 250 255 257 257 257 257 257 255 255 254 251 247 244 240 238 239 240 241 242 241 241 240 239 240 239 239 241 244 247 250 253 255 257 258 258 259
238 242 244 240 239 241 244 249 252 253 254 256 257 256 257 256 252 249 248 243 239 238 239 241 242 243 242 241 240 240 241 241 241 243 245 247 250 253 255 256 257 257
243 246 248 246 244 242 241 242 245 248 249 252 251 249 251 256 256 254 252 248 243 240 240 240 241 241 242 242 240 240 240 241 242 243 244 245 247 249 251 253 254 255
247 247 247 247 246 244 243 244 244 244 245 249 249 244 242 247 252 255 255 253 249 247 245 243 241 240 240 241 240 239 239 240 241 242 243 244 246 247 249 250 251 252
248 249 249 249 249 247 247 245 244 242 244 249 251 247 240 239 243 249 253 254 254 253 250 247 244 242 241 240 239 239 239 239 240 241 243 244 245 246 248 249 250 250
251 251 251 252 252 251 252 252 248 245 244 245 248 249 245 240 239 242 246 250 253 254 253 250 248 247 246 243 240 240 239 239 240 241 243 244 246 247 247 248 249 250
262 256 254 255 255 254 256 255 251 248 245 241 244 250 249 246 243 241 242 244 246 250 253 253 251 250 249 245 242 240 239 239 240 242 243 244 245 247 249 250 250 250
279 270 263 260 259 259 258 255 254 255 254 251 251 251 251 250 250 248 246 245 245 245 248 252 252 252 250 247 243 240 239 239 240 242 243 244 246 248 249 250 252 252